Date,TemperatureHighF,TemperatureAvgF,TemperatureLowF,DewpointHighF,DewpointAvgF,DewpointLowF,HumidityHigh,HumidityAvg,HumidityLow,PressureMaxIn,PressureMinIn,WindSpeedMaxMPH,WindSpeedAvgMPH,GustSpeedMaxMPH,PrecipitationSumIn
2013-1-1,32.0,19.7,10.7,12.7,8.0,4.8,82,63,36,30.41,30.22,7,1,12,0.00
2013-1-2,32.9,20.5,10.2,12.2,6.5,1.5,69,55,32,30.50,30.30,11,2,18,0.00
2013-1-3,38.2,22.6,11.5,6.6,1.9,-2.6,68,43,21,30.55,30.30,7,2,12,0.00
2013-1-4,48.1,28.4,13.5,13.6,6.5,-0.1,61,42,20,30.42,30.09,7,1,12,0.00
2013-1-5,40.4,26.4,14.9,16.5,11.7,6.2,69,55,35,30.48,30.10,10,2,14,0.00
2013-1-6,49.2,30.5,15.7,15.8,9.5,2.3,65,45,17,30.40,29.91,7,2,9,0.00
2013-1-7,52.7,38.6,27.5,14.8,12.5,8.5,53,36,18,30.12,29.80,10,1,12,0.00
2013-1-8,52.8,40.0,26.3,20.4,16.4,8.2,58,40,26,30.19,29.76,14,2,20,0.00
2013-1-9,61.9,39.6,24.8,24.6,18.6,14.4,66,46,19,30.40,29.91,15,3,20,0.00
2013-1-10,46.9,38.8,27.7,22.0,16.7,10.3,57,42,23,29.91,29.36,16,2,25,0.00
2013-1-11,44.7,28.3,13.1,24.9,16.8,7.0,84,65,35,29.95,29.21,13,2,21,0.00
2013-1-12,15.0,8.0,3.5,7.6,1.5,-1.9,86,75,58,30.38,29.92,10,1,15,0.00
2013-1-13,14.1,6.7,0.5,2.3,-0.9,-5.0,80,71,57,30.50,30.34,9,1,12,0.00
2013-1-14,13.8,6.7,1.4,3.9,0.1,-3.9,88,74,62,30.52,30.37,7,0,12,0.00
2013-1-15,31.1,17.9,-2.1,14.5,2.9,-7.5,78,55,36,30.49,30.23,8,2,10,0.00
2013-1-16,52.3,36.4,22.4,22.5,17.4,11.5,67,47,30,30.43,30.14,9,2,13,0.00
2013-1-17,51.6,34.6,21.4,23.8,18.1,13.7,74,53,28,30.56,30.24,7,1,10,0.00
2013-1-18,59.0,39.3,23.2,17.5,11.2,6.7,65,36,14,30.30,30.00,14,2,20,0.00
2013-1-19,61.2,42.7,26.2,15.7,9.9,4.0,48,29,12,30.29,29.97,12,2,20,0.00
2013-1-20,49.7,34.0,23.3,16.6,13.9,9.9,72,45,23,30.35,30.06,12,2,18,0.00
2013-1-21,56.7,37.7,18.1,19.9,11.5,1.6,77,42,15,30.36,29.97,14,2,22,0.00
2013-1-22,63.7,45.1,29.2,11.9,3.5,-2.6,38,21,8,30.15,29.88,20,4,27,0.00
2013-1-23,57.9,41.4,29.5,16.6,8.7,1.0,37,26,15,30.25,30.04,9,2,12,0.00
2013-1-24,67.7,48.3,30.8,28.4,19.5,9.4,48,33,15,30.07,29.77,18,4,27,0.00
2013-1-25,58.4,43.8,32.7,30.2,25.6,21.5,65,50,32,30.10,29.89,8,2,14,0.00
2013-1-26,54.0,40.3,28.8,34.5,27.3,21.3,83,62,37,30.05,29.66,6,1,12,0.02
2013-1-27,58.7,43.4,29.2,37.3,31.1,22.9,90,65,39,29.78,29.58,8,2,12,0.00
2013-1-28,57.2,39.8,26.2,29.4,25.3,20.9,89,60,27,29.76,29.37,17,3,30,0.00
2013-1-29,31.9,25.3,19.3,23.1,14.4,5.6,88,66,33,30.09,29.66,11,2,17,0.15
2013-1-30,39.9,27.8,13.5,16.1,11.4,5.6,82,52,34,30.09,29.86,18,3,26,0.01
2013-1-31,47.4,37.6,27.7,21.7,17.8,14.2,63,45,28,30.16,29.88,17,3,27,0.01
2013-2-1,50.3,36.0,23.3,22.2,18.3,13.6,69,51,28,30.23,30.00,18,3,26,0.00
2013-2-2,59.0,38.1,23.4,21.7,16.2,12.5,74,46,16,30.39,30.14,12,2,17,0.00
2013-2-3,53.8,38.6,25.5,21.8,15.0,7.3,64,41,17,30.22,29.86,11,1,16,0.00
2013-2-4,54.1,38.7,24.1,16.2,12.3,9.0,55,36,18,30.00,29.82,12,3,21,0.00
2013-2-5,60.9,42.2,26.4,21.0,17.5,14.3,62,40,20,30.07,29.72,10,2,17,0.00
2013-2-6,56.2,41.3,30.0,32.3,23.8,17.3,89,53,28,30.02,29.69,12,2,20,0.10
2013-2-7,48.1,36.2,26.0,30.6,24.1,13.1,90,66,26,30.24,30.00,12,2,18,0.01
2013-2-8,51.2,38.1,27.5,23.0,18.7,13.9,66,47,30,30.01,29.61,11,3,17,0.00
2013-2-9,35.7,29.9,23.8,26.9,20.5,13.9,83,68,53,29.77,29.57,14,2,18,0.00
2013-2-10,35.4,27.0,21.0,19.7,14.4,9.2,83,61,35,30.17,29.64,11,2,18,0.00
2013-2-11,29.8,22.7,15.3,14.8,12.9,9.7,80,66,50,30.25,30.09,8,1,10,0.00
2013-2-12,41.7,28.2,16.3,13.5,5.7,-2.3,77,44,16,30.24,30.07,8,1,12,0.00
2013-2-13,46.1,34.0,20.5,16.1,11.9,6.2,57,41,27,30.11,29.95,18,4,28,0.00
2013-2-14,35.4,26.7,22.2,22.5,17.7,12.6,92,70,48,30.42,30.00,14,2,23,0.00
2013-2-15,38.6,26.1,16.3,18.3,14.1,9.7,79,62,35,30.50,30.30,14,2,21,0.02
2013-2-16,56.3,39.9,21.8,18.9,15.0,12.0,71,40,21,30.31,29.90,15,4,24,0.00
2013-2-17,62.1,42.7,27.6,19.0,9.8,1.0,62,31,9,29.93,29.42,16,3,24,0.00
2013-2-18,40.5,31.7,23.9,20.1,11.3,1.9,74,46,21,30.17,29.69,18,3,26,0.00
2013-2-19,40.7,29.2,17.0,15.7,10.3,4.6,64,46,34,30.20,29.80,9,1,15,0.00
2013-2-20,35.0,25.9,18.9,26.3,17.7,12.6,90,72,47,29.86,29.68,8,2,12,0.00
2013-2-21,27.6,19.9,14.0,18.1,15.0,11.1,92,81,65,30.10,29.80,7,2,12,0.14
2013-2-22,34.9,23.6,11.2,18.5,14.2,7.0,92,69,47,30.12,29.96,11,3,16,0.04
2013-2-23,47.2,31.3,15.8,26.7,16.9,6.1,85,58,30,29.96,29.60,10,3,15,0.01
2013-2-24,28.5,25.3,20.3,25.3,23.0,18.3,92,91,85,30.26,29.67,15,4,23,0.00
2013-2-25,38.2,23.7,10.7,27.5,15.4,7.5,92,73,34,30.28,29.97,11,2,15,0.21
2013-2-26,32.5,24.6,17.5,25.0,18.2,8.4,83,76,67,30.24,29.87,15,3,24,0.03
2013-2-27,36.4,26.8,15.3,17.2,11.9,6.0,72,54,33,30.42,30.23,11,2,14,0.00
2013-2-28,42.7,29.5,11.4,15.3,9.8,2.9,70,46,26,30.44,30.18,17,4,27,0.00
2013-3-1,48.2,36.8,25.8,22.7,18.8,14.2,68,49,32,30.37,30.20,11,2,15,0.00
2013-3-2,62.2,44.2,27.9,28.1,24.1,18.9,70,49,25,30.36,29.91,11,2,15,0.00
2013-3-3,63.4,50.8,38.8,27.6,24.5,20.3,63,38,22,29.91,29.48,14,2,25,0.00
2013-3-4,45.1,29.3,18.1,25.9,21.6,11.0,89,74,45,30.38,29.50,13,2,20,0.02
2013-3-5,40.9,26.5,10.9,21.9,15.0,4.2,78,63,44,30.50,30.21,11,2,14,0.02
2013-3-6,60.4,38.4,20.6,32.6,22.6,16.3,86,59,19,30.22,29.79,11,1,16,0.00
2013-3-7,66.7,48.2,32.1,30.5,25.2,20.6,70,44,18,29.93,29.69,21,2,26,0.00
2013-3-8,47.3,38.6,30.5,31.7,28.7,23.6,81,68,52,29.90,29.64,8,1,12,0.00
2013-3-9,35.5,31.0,25.4,30.1,27.3,18.0,92,86,73,30.18,29.58,14,4,25,0.08
2013-3-10,41.1,30.8,17.4,22.8,18.3,12.9,84,62,38,30.31,30.07,7,1,10,0.19
2013-3-11,52.6,38.3,29.2,29.1,22.6,17.7,89,57,30,30.12,29.85,12,4,21,0.00
2013-3-12,40.2,31.0,23.9,28.9,25.7,21.7,92,82,61,30.44,30.12,6,1,9,0.20
2013-3-13,65.4,47.4,29.2,36.3,27.1,23.1,86,51,22,30.36,30.07,10,2,15,0.00
2013-3-14,72.0,54.1,36.4,31.1,26.5,18.9,66,39,14,30.22,29.94,11,2,16,0.00
2013-3-15,75.0,60.0,44.6,28.9,26.3,23.8,50,30,16,29.95,29.61,13,3,21,0.00
2013-3-16,56.0,47.5,41.4,35.4,31.5,24.2,69,55,30,29.84,29.61,7,1,12,0.00
2013-3-17,60.2,45.6,35.6,32.8,25.1,12.9,77,48,19,29.75,29.40,21,5,33,0.00
2013-3-18,49.4,40.5,30.2,20.1,12.9,8.0,49,33,24,29.94,29.73,21,5,30,0.00
2013-3-19,54.0,41.9,29.3,20.5,11.1,-0.8,57,31,11,30.40,29.85,12,4,23,0.00
2013-3-20,52.7,38.0,22.3,25.6,20.3,15.0,76,51,32,30.38,29.66,9,1,15,0.00
2013-3-21,59.0,42.9,32.6,34.2,22.8,11.6,66,47,26,29.75,29.36,17,4,26,0.00
2013-3-22,48.3,35.0,26.2,26.7,21.6,13.4,91,60,35,29.92,29.57,15,4,26,0.00
2013-3-23,26.2,18.5,13.5,23.9,15.9,10.5,91,89,88,30.46,29.89,13,3,22,0.00
2013-3-24,24.3,16.6,4.1,18.7,11.9,0.6,92,82,74,30.45,30.29,9,2,14,0.18
2013-3-25,34.1,23.4,12.3,16.1,10.7,4.7,87,62,30,30.51,30.34,9,1,12,0.03
2013-3-26,54.9,35.0,19.3,32.4,19.6,9.9,73,56,28,30.34,29.90,11,2,14,0.00
2013-3-27,57.9,42.2,28.4,35.3,29.4,23.1,82,63,39,30.12,29.94,11,2,16,0.00
2013-3-28,64.9,47.7,32.7,36.8,31.8,28.9,90,59,27,30.09,29.91,10,1,16,0.00
2013-3-29,67.0,52.4,40.1,34.8,30.8,29.3,67,46,26,30.04,29.88,12,2,24,0.00
2013-3-30,66.8,50.9,39.5,37.8,31.0,23.5,77,50,20,30.13,29.81,19,3,26,0.00
2013-3-31,70.8,52.6,33.9,35.9,27.9,19.5,85,47,15,30.08,29.76,11,2,15,0.00
2013-4-1,54.7,43.7,33.4,35.0,30.5,25.6,81,60,41,30.06,29.89,14,4,21,0.02
2013-4-2,40.0,37.4,35.8,34.0,32.8,30.8,91,83,73,30.14,29.96,5,1,10,0.12
2013-4-3,61.2,46.4,35.8,38.7,31.9,25.5,92,64,27,30.17,29.92,9,1,15,0.03
2013-4-4,69.3,53.7,35.3,32.0,29.3,27.2,76,43,22,30.11,29.78,13,2,17,0.00
2013-4-5,73.3,59.4,47.8,35.5,28.5,25.1,53,33,19,29.79,29.45,23,3,38,0.00
2013-4-6,65.5,55.1,45.1,34.6,26.5,22.0,49,34,23,29.81,29.60,15,3,22,0.00
2013-4-7,64.5,53.8,41.1,36.2,30.3,24.5,76,43,23,29.72,29.49,18,4,28,0.00
2013-4-8,67.7,46.8,25.2,36.1,29.2,21.6,86,54,22,29.78,29.18,20,4,34,0.00
2013-4-9,25.2,15.7,10.5,21.9,11.9,6.5,88,85,81,30.49,29.74,15,6,25,0.00
2013-4-10,26.9,18.3,8.0,15.1,10.3,4.2,85,72,56,30.46,30.02,10,2,15,0.02
2013-4-11,55.8,38.2,21.6,35.1,25.9,14.8,82,64,35,30.02,29.73,12,2,21,0.02
2013-4-12,59.7,42.4,31.9,34.9,30.6,22.2,83,65,25,29.96,29.72,21,3,29,0.01
2013-4-13,70.0,50.5,30.2,35.2,27.6,18.7,89,50,17,29.85,29.18,14,3,23,0.00
2013-4-14,49.2,42.3,33.6,37.8,23.0,10.4,91,52,22,29.72,29.27,18,5,31,0.27
2013-4-15,38.9,29.9,22.6,25.4,21.6,13.6,90,74,36,30.13,29.61,16,3,21,0.00
2013-4-16,35.1,28.5,22.5,30.6,25.1,20.0,92,87,76,30.15,29.89,12,2,17,0.25
2013-4-17,31.2,26.2,19.2,28.7,23.8,16.7,93,91,89,30.30,29.95,13,3,24,0.01
2013-4-18,36.4,26.6,15.4,18.8,14.5,10.4,90,63,40,30.33,30.21,9,1,14,0.08
2013-4-19,54.7,41.5,25.8,26.6,18.5,11.3,64,41,27,30.22,29.85,12,2,20,0.00
2013-4-20,58.5,47.3,34.7,35.6,29.6,23.0,73,52,32,29.91,29.75,10,2,20,0.01
2013-4-21,63.3,50.7,38.3,33.7,28.5,22.0,76,46,24,30.00,29.79,12,2,16,0.00
2013-4-22,53.2,34.4,22.0,36.4,27.0,19.5,90,76,50,30.40,29.74,19,3,31,0.01
2013-4-23,34.8,26.3,19.9,21.8,18.8,17.2,91,75,50,30.44,30.25,8,1,13,0.33
2013-4-24,55.5,39.9,25.0,24.3,18.7,13.7,74,46,21,30.29,30.09,11,2,16,0.01
2013-4-25,65.7,50.1,33.3,31.0,23.1,14.8,62,38,17,30.12,29.76,9,1,12,0.00
2013-4-26,67.8,54.5,37.1,28.6,25.3,20.8,67,35,19,30.05,29.82,10,2,15,0.00
2013-4-27,74.5,60.3,43.4,29.8,25.4,20.4,55,30,15,30.04,29.78,11,2,15,0.00
2013-4-28,79.3,63.7,43.5,35.1,29.4,23.0,52,30,16,29.81,29.53,12,3,20,0.00
2013-4-29,81.1,67.3,49.0,36.3,32.0,26.3,56,30,16,29.62,29.28,16,2,22,0.00
2013-4-30,65.9,51.6,38.6,40.7,34.0,26.4,86,53,23,29.94,29.28,16,3,25,0.00
2013-5-1,38.8,30.6,24.1,35.3,28.0,21.5,93,90,86,30.76,29.92,13,3,18,0.31
2013-5-2,44.6,34.3,22.8,26.0,21.0,16.6,91,62,35,30.84,30.43,8,1,12,0.28
2013-5-3,61.1,47.1,29.8,27.6,24.1,20.8,74,44,23,30.44,29.97,14,2,20,0.00
2013-5-4,60.8,48.6,36.4,34.3,28.6,23.7,69,47,31,30.09,29.96,10,2,14,0.00
2013-5-5,57.9,48.1,37.2,33.8,27.7,22.9,65,46,33,30.13,29.96,9,2,15,0.00
2013-5-6,66.1,53.5,41.7,39.3,33.5,25.6,65,48,34,29.98,29.74,9,2,12,0.00
2013-5-7,71.3,56.8,46.8,45.6,39.0,34.9,86,55,28,29.83,29.64,10,2,15,0.20
2013-5-8,60.7,48.2,44.2,46.6,41.9,38.1,92,79,50,29.96,29.74,15,2,25,0.42
2013-5-9,56.7,47.8,42.4,45.9,42.0,37.6,92,81,60,30.13,29.92,10,2,17,0.52
2013-5-10,66.0,53.2,38.9,42.5,37.8,33.9,83,59,34,30.16,30.04,13,2,18,0.00
2013-5-11,69.0,57.3,45.4,42.6,38.7,34.5,74,52,30,30.25,30.02,15,2,25,0.00
2013-5-12,78.6,65.3,50.3,40.4,37.8,34.6,63,39,23,30.03,29.79,10,2,17,0.00
2013-5-13,85.0,70.9,52.0,43.2,40.5,36.3,60,35,22,29.90,29.66,11,2,16,0.00
2013-5-14,87.2,71.1,60.8,48.7,41.2,38.1,44,35,19,29.71,29.56,18,3,32,0.01
2013-5-15,82.3,66.4,58.1,51.3,44.3,39.5,74,47,25,29.72,29.52,13,2,22,0.11
2013-5-16,83.4,67.7,51.0,48.8,43.4,36.6,78,46,20,29.71,29.47,20,2,27,0.00
2013-5-17,88.3,72.9,54.4,45.4,34.8,25.5,58,30,11,29.60,29.36,14,2,22,0.00
2013-5-18,78.7,65.3,55.0,42.3,34.2,26.6,55,32,19,29.59,29.42,12,2,18,0.00
2013-5-19,70.3,59.7,51.8,40.4,35.4,27.8,62,43,23,29.63,29.49,13,2,18,0.00
2013-5-20,65.5,53.3,47.6,47.1,41.2,35.5,87,65,39,29.86,29.60,16,2,23,0.14
2013-5-21,71.0,57.3,42.4,40.6,36.7,32.3,85,51,26,29.94,29.66,16,2,22,0.00
2013-5-22,78.5,61.1,44.6,49.1,39.4,34.4,78,48,24,29.81,29.60,13,2,23,0.04
2013-5-23,70.7,58.7,46.7,48.0,45.7,42.4,88,64,43,29.89,29.71,21,4,28,0.00
2013-5-24,88.0,69.6,49.3,55.9,43.0,27.4,86,46,12,29.78,29.53,13,3,21,0.00
2013-5-25,88.8,72.9,54.3,55.6,39.3,21.0,78,39,9,29.70,29.45,13,2,20,0.00
2013-5-26,85.5,71.4,59.0,45.3,36.2,26.0,47,29,12,29.63,29.46,21,2,31,0.00
2013-5-27,83.7,70.8,55.4,46.0,35.0,27.8,55,30,14,29.56,29.40,14,2,26,0.00
2013-5-28,82.8,66.5,49.5,48.4,40.4,32.8,69,41,18,29.58,29.23,17,3,28,0.00
2013-5-29,66.3,57.8,51.3,51.0,44.1,32.1,88,62,35,29.53,29.23,9,2,18,0.15
2013-5-30,70.8,60.6,48.9,36.2,31.9,26.7,57,35,21,29.65,29.45,16,4,28,0.00
2013-5-31,73.5,62.3,49.5,33.2,25.0,18.3,47,26,14,29.76,29.60,15,3,28,0.00
2013-6-1,70.0,58.2,45.4,40.6,36.7,23.9,70,47,25,30.01,29.74,14,2,21,0.00
2013-6-2,86.5,66.3,45.6,43.7,37.5,32.8,70,39,18,29.99,29.49,10,2,16,0.00
2013-6-3,90.8,76.0,54.9,38.9,35.6,30.8,48,25,13,29.52,29.34,14,3,26,0.00
2013-6-4,75.7,63.1,50.2,53.1,45.9,28.8,88,56,24,30.00,29.52,13,2,21,0.15
2013-6-5,58.1,51.6,46.3,47.5,45.3,41.7,92,79,65,30.08,29.93,5,1,13,0.01
2013-6-6,79.8,63.5,44.3,49.3,43.6,39.4,92,55,25,30.01,29.75,10,1,15,0.00
2013-6-7,82.8,68.9,52.5,49.3,43.5,38.5,72,42,25,29.83,29.47,18,1,29,0.00
2013-6-8,76.8,67.8,60.0,50.8,44.3,39.1,58,43,33,29.77,29.42,14,2,24,0.00
2013-6-9,92.6,73.0,49.7,47.0,42.3,38.4,76,38,17,29.81,29.53,8,1,12,0.00
2013-6-10,97.3,81.9,62.7,46.5,41.0,36.5,41,25,14,29.56,29.37,20,2,37,0.00
2013-6-11,99.5,83.4,62.3,46.4,36.7,26.8,48,22,8,29.51,29.32,14,3,26,0.00
2013-6-12,93.0,79.1,58.3,49.5,37.7,30.5,44,24,15,29.78,29.50,15,3,26,0.00
2013-6-13,85.2,72.3,57.0,59.3,53.6,43.1,85,55,30,29.78,29.55,10,1,18,0.00
2013-6-14,90.5,77.8,66.4,50.4,44.9,33.6,52,32,15,29.60,29.46,19,4,29,0.00
2013-6-15,82.0,69.8,55.7,53.1,49.2,45.6,71,49,33,29.80,29.56,8,1,12,0.00
2013-6-16,84.8,70.2,58.2,51.2,46.2,36.1,67,45,22,29.90,29.66,14,2,26,0.00
2013-6-17,83.2,69.3,53.1,52.3,45.0,39.2,69,44,25,29.89,29.69,9,1,15,0.00
2013-6-18,85.2,69.8,55.2,55.7,49.9,43.8,84,52,25,29.83,29.55,22,3,34,0.00
2013-6-19,96.2,76.9,55.9,53.5,45.7,30.8,79,41,11,29.67,29.26,19,3,26,0.00
2013-6-20,92.3,75.7,57.3,52.7,40.1,28.0,69,31,16,29.56,29.32,10,2,17,0.00
2013-6-21,96.8,78.0,60.0,53.4,42.2,31.0,54,32,11,29.60,29.35,10,1,18,0.00
2013-6-22,86.8,72.1,57.1,53.7,49.4,45.1,70,46,29,29.63,29.42,12,1,17,0.00
2013-6-23,88.0,68.7,55.1,56.9,49.4,38.9,80,54,21,29.74,29.48,15,2,20,0.06
2013-6-24,90.0,73.9,59.9,54.0,44.9,34.1,61,39,16,29.62,29.35,21,3,33,0.01
2013-6-25,92.5,77.5,61.4,45.1,40.5,33.3,39,28,17,29.63,29.41,9,1,13,0.00
2013-6-26,98.1,81.2,59.6,47.3,43.9,39.1,53,29,17,29.73,29.56,8,2,14,0.00
2013-6-27,97.3,83.0,65.1,51.5,46.6,42.1,49,30,18,29.79,29.63,9,2,15,0.00
2013-6-28,94.2,80.2,65.5,60.2,53.7,46.8,67,41,28,29.90,29.68,21,2,28,0.06
2013-6-29,84.5,74.0,61.1,59.8,54.7,48.9,82,52,32,29.88,29.71,9,1,18,0.00
2013-6-30,77.8,68.5,61.3,60.8,55.9,50.8,87,65,49,29.93,29.78,9,1,15,0.16
2013-7-1,81.3,68.1,56.0,58.2,54.4,49.3,89,64,38,30.01,29.90,11,2,16,0.13
2013-7-2,83.8,70.2,54.9,57.6,51.4,44.6,92,57,29,29.97,29.77,10,1,17,0.01
2013-7-3,89.7,73.1,57.4,53.2,49.0,44.8,73,46,24,29.79,29.55,9,1,14,0.00
2013-7-4,91.5,76.4,60.3,52.9,49.4,46.9,64,41,23,29.68,29.50,11,1,20,0.00
2013-7-5,92.5,75.5,64.3,59.5,52.3,48.1,61,46,27,29.60,29.42,10,1,18,0.01
2013-7-6,91.0,77.0,69.3,61.9,52.9,48.8,68,45,26,29.61,29.43,12,1,18,0.07
2013-7-7,85.5,74.6,64.5,60.3,54.8,51.3,67,51,35,29.71,29.57,9,1,14,0.00
2013-7-8,96.5,79.9,66.1,55.5,51.6,46.1,64,40,19,29.75,29.59,11,2,22,0.00
2013-7-9,95.9,81.0,66.2,54.5,48.8,43.9,55,35,18,29.79,29.67,8,1,20,0.00
2013-7-10,88.9,76.3,62.5,61.3,55.0,49.6,72,49,32,29.84,29.64,15,2,25,0.00
2013-7-11,99.7,80.1,64.2,60.8,55.4,45.9,81,47,18,29.73,29.43,19,3,31,0.13
2013-7-12,94.2,76.5,67.2,64.1,56.9,52.8,83,54,27,29.70,29.48,12,1,22,0.05
2013-7-13,93.2,72.1,61.9,65.8,60.0,55.6,95,70,29,29.93,29.59,14,1,22,1.49
2013-7-14,82.6,69.2,58.0,64.3,60.1,56.6,96,75,46,29.94,29.74,11,2,16,0.01
2013-7-15,77.4,68.5,63.4,65.3,59.3,45.9,94,75,48,29.90,29.78,13,2,24,0.49
2013-7-16,83.4,70.9,57.8,56.2,51.3,47.3,73,52,32,29.91,29.80,15,5,24,0.00
2013-7-17,90.5,75.6,59.8,57.1,53.9,49.8,79,50,30,29.92,29.70,15,4,22,0.00
2013-7-18,93.3,76.8,63.4,58.5,54.6,51.7,70,48,27,29.79,29.64,10,2,20,0.00
2013-7-19,82.5,73.8,64.8,60.0,56.7,54.3,73,56,41,29.85,29.70,12,2,17,0.00
2013-7-20,93.0,74.1,60.5,59.2,55.6,49.1,80,57,24,29.74,29.51,16,2,23,0.00
2013-7-21,90.9,76.4,60.0,63.0,55.4,48.3,79,51,27,29.68,29.48,11,2,17,0.00
2013-7-22,96.7,81.0,63.2,60.3,51.7,44.6,68,39,18,29.62,29.47,10,1,15,0.00
2013-7-23,91.8,78.9,64.8,58.4,50.2,43.0,62,38,22,29.74,29.50,10,2,16,0.00
2013-7-24,83.8,73.5,64.5,63.3,56.7,46.8,76,57,34,29.84,29.70,14,2,26,0.00
2013-7-25,81.2,65.9,58.7,60.1,55.4,51.9,85,70,40,30.01,29.74,12,1,20,0.08
2013-7-26,87.0,72.5,58.4,54.7,51.4,44.0,76,51,24,30.03,29.76,11,1,18,0.00
2013-7-27,80.4,67.8,57.1,60.4,54.5,49.5,91,64,44,29.86,29.71,10,1,14,0.24
2013-7-28,72.2,63.5,59.1,61.0,58.8,56.6,95,85,66,29.79,29.62,8,0,12,0.04
2013-7-29,72.1,64.3,58.0,62.4,57.4,53.6,94,79,55,29.92,29.67,6,1,12,0.00
2013-7-30,88.6,72.1,58.2,56.5,53.1,50.1,83,56,28,29.96,29.80,16,1,31,0.00
2013-7-31,92.1,74.8,60.0,57.6,52.7,46.5,77,50,22,30.05,29.75,10,1,17,0.00
2013-8-1,92.8,74.9,62.5,58.5,53.9,42.9,80,52,19,29.84,29.56,12,2,20,0.00
2013-8-2,93.5,76.7,61.6,56.0,52.3,46.8,74,46,23,29.70,29.55,14,2,23,0.00
2013-8-3,92.0,72.6,58.4,62.5,55.5,50.4,92,59,29,30.03,29.62,15,2,25,0.73
2013-8-4,90.3,71.2,58.1,60.4,55.4,47.1,92,62,23,29.93,29.71,13,1,21,0.18
2013-8-5,88.5,74.3,64.4,59.3,53.5,49.9,75,50,29,29.79,29.64,10,1,17,0.02
2013-8-6,89.8,74.1,62.8,55.7,50.6,44.8,68,46,23,29.77,29.59,11,2,20,0.00
2013-8-7,73.6,67.5,61.8,57.3,53.5,49.3,79,62,48,29.83,29.63,13,2,20,0.01
2013-8-8,77.8,63.8,57.8,59.3,55.6,49.6,92,76,48,29.99,29.75,16,1,26,0.03
2013-8-9,81.9,64.6,53.5,55.2,50.7,46.8,84,63,31,30.03,29.83,11,2,20,0.00
2013-8-10,88.2,69.7,54.0,52.8,49.7,45.3,82,53,24,30.01,29.77,10,2,18,0.00
2013-8-11,83.3,70.4,59.0,59.1,51.5,47.4,77,53,31,29.95,29.77,9,1,14,0.04
2013-8-12,82.5,67.4,55.9,58.0,53.4,48.3,89,62,39,29.99,29.80,12,1,22,0.12
2013-8-13,80.3,66.7,55.3,56.1,52.4,48.3,90,63,37,30.01,29.84,9,1,20,0.02
2013-8-14,84.1,68.5,54.0,56.2,50.6,44.4,90,56,28,29.98,29.79,11,1,18,0.00
2013-8-15,87.2,71.7,59.5,54.4,48.8,40.2,66,47,23,29.87,29.74,12,1,22,0.00
2013-8-16,92.4,75.1,57.9,54.0,46.9,39.9,67,40,17,29.89,29.73,7,1,12,0.00
2013-8-17,95.8,78.4,59.9,55.6,47.3,37.3,63,37,14,29.82,29.61,12,1,17,0.00
2013-8-18,94.8,78.0,60.6,56.1,50.6,43.7,74,42,19,29.78,29.58,10,1,16,0.00
2013-8-19,95.2,79.9,62.6,52.5,48.4,44.0,60,36,18,29.80,29.60,12,2,18,0.00
2013-8-20,98.1,82.2,67.6,53.1,46.9,38.1,49,31,13,29.67,29.51,13,2,17,0.00
2013-8-21,91.5,76.9,67.5,59.3,50.6,45.6,64,41,26,29.80,29.57,11,1,16,0.00
2013-8-22,83.9,70.2,62.2,64.3,58.0,53.8,82,67,46,29.93,29.74,8,1,20,0.05
2013-8-23,89.9,72.7,61.4,59.5,55.3,51.1,78,57,30,29.89,29.57,10,2,25,0.02
2013-8-24,87.8,71.3,59.0,65.2,54.9,50.4,76,59,32,29.77,29.63,9,1,17,0.06
2013-8-25,90.4,75.1,62.7,59.3,56.0,51.5,77,54,28,29.85,29.68,8,1,14,0.00
2013-8-26,92.0,76.9,61.2,60.2,57.0,54.3,85,54,30,29.84,29.67,8,1,13,0.00
2013-8-27,92.0,78.4,65.3,59.3,56.9,54.1,71,50,29,29.81,29.62,12,1,16,0.00
2013-8-28,93.6,77.8,62.8,58.6,55.1,49.5,73,49,23,29.78,29.63,7,0,10,0.00
2013-8-29,94.7,78.7,63.1,56.1,52.4,49.8,63,43,23,29.83,29.68,11,1,20,0.00
2013-8-30,84.7,72.9,67.9,60.7,55.3,52.3,71,55,40,29.86,29.72,10,1,22,0.05
2013-8-31,92.2,75.8,64.3,59.1,54.3,50.8,71,49,26,29.81,29.62,10,1,21,0.00
2013-9-1,80.7,69.2,63.0,61.1,56.2,52.3,76,64,50,29.92,29.72,6,0,12,0.00
2013-9-2,90.2,83.3,73.2,59.5,55.7,53.6,53,39,30,29.77,29.65,8,1,12,0.00
2013-9-3,94.5,79.4,66.6,57.6,54.4,51.8,66,44,25,29.76,29.62,8,1,16,0.00
2013-9-4,93.0,78.0,70.1,59.2,55.1,53.1,59,46,28,29.84,29.68,12,1,20,0.00
2013-9-5,96.0,77.9,63.4,59.6,54.4,49.9,73,47,24,29.91,29.67,17,1,25,0.00
2013-9-6,96.8,78.9,62.8,55.5,51.0,45.4,58,40,19,29.82,29.61,12,1,20,0.00
2013-9-7,95.0,77.3,60.5,55.8,49.9,42.9,69,42,19,29.82,29.61,10,1,16,0.00
2013-9-8,91.0,74.6,59.6,54.9,50.4,44.3,62,44,26,29.72,29.48,7,1,12,0.00
2013-9-9,85.7,67.9,59.5,58.5,54.5,50.6,86,65,35,29.78,29.50,14,2,24,0.00
2013-9-10,69.3,61.9,59.6,60.8,57.5,55.1,94,86,72,29.98,29.70,7,1,13,0.34
2013-9-11,67.7,61.7,59.4,64.7,60.0,57.7,96,94,81,29.99,29.90,7,1,12,0.58
2013-9-12,63.2,60.2,57.9,62.2,59.1,56.5,97,96,95,30.04,29.92,9,1,16,2.51
2013-9-13,78.7,64.4,57.7,63.2,58.9,56.4,97,84,53,29.97,29.59,12,1,17,0.33
2013-9-14,80.3,63.9,58.0,61.2,57.4,52.3,93,81,45,29.76,29.54,19,1,28,0.03
2013-9-15,60.9,57.1,54.2,57.2,54.8,52.8,95,92,85,30.10,29.73,8,0,12,0.36
2013-9-16,76.7,62.2,51.5,58.8,54.6,50.4,97,78,49,30.09,29.77,6,0,9,0.01
2013-9-17,86.0,70.2,56.6,53.6,48.4,40.3,84,51,21,29.83,29.49,9,1,13,0.00
2013-9-18,85.7,70.8,60.7,53.2,48.2,42.2,69,46,26,29.58,29.42,13,2,20,0.00
2013-9-19,65.9,59.9,51.4,46.9,43.6,36.8,72,55,44,30.01,29.54,8,1,13,0.00
2013-9-20,74.5,60.4,48.0,48.6,45.5,42.4,87,61,33,30.03,29.78,6,0,10,0.00
2013-9-21,84.9,67.9,50.9,48.8,45.5,40.9,84,50,23,29.82,29.46,10,1,17,0.00
2013-9-22,78.7,65.3,55.9,52.2,46.5,42.5,85,52,33,29.52,29.29,18,2,32,0.06
2013-9-23,67.2,57.3,48.8,51.8,40.8,32.3,94,59,31,29.88,29.26,12,2,24,0.88
2013-9-24,77.9,60.4,43.2,41.8,36.9,33.4,72,45,23,30.00,29.58,11,1,16,0.00
2013-9-25,84.3,67.6,44.5,45.4,38.1,33.1,81,39,18,29.61,29.17,17,3,28,0.00
2013-9-26,70.7,59.0,45.2,49.3,43.7,34.8,81,58,34,29.56,29.19,9,1,14,0.00
2013-9-27,53.3,46.8,40.5,48.5,44.2,38.8,94,91,77,29.96,29.49,8,1,14,0.21
2013-9-28,69.8,51.3,34.6,39.5,34.7,25.1,94,59,26,30.11,29.91,7,1,14,0.01
2013-9-29,78.3,59.0,41.6,42.5,35.4,29.9,69,45,19,29.96,29.65,11,1,14,0.00
2013-9-30,83.0,66.7,53.1,47.3,41.6,35.6,60,42,24,29.72,29.47,8,1,13,0.00
2013-10-1,78.2,62.2,48.0,46.4,42.3,37.5,69,51,27,29.87,29.58,16,1,23,0.00
2013-10-2,78.1,61.8,46.5,45.9,41.8,38.1,79,52,24,29.80,29.62,10,1,17,0.00
2013-10-3,66.1,52.6,42.1,47.6,42.7,37.9,92,71,47,29.71,29.53,8,1,14,0.03
2013-10-4,48.1,37.4,30.3,45.6,32.4,23.8,94,83,58,30.27,29.56,12,3,20,0.36
2013-10-5,61.2,43.5,27.6,29.1,23.5,18.4,87,52,20,30.31,30.07,10,1,16,0.00
2013-10-6,69.5,51.4,34.5,37.8,30.4,23.3,68,48,26,30.24,30.04,7,2,13,0.00
2013-10-7,80.5,59.5,39.4,36.2,32.7,26.0,71,42,15,30.07,29.66,9,1,12,0.00
2013-10-8,80.7,63.4,50.2,40.3,35.0,26.3,57,37,15,29.67,29.41,9,1,17,0.00
2013-10-9,65.5,54.8,44.5,43.4,39.9,35.3,78,58,43,29.81,29.53,9,1,14,0.00
2013-10-10,59.7,49.6,42.6,48.1,42.5,39.3,90,77,62,29.80,29.39,15,1,28,0.03
2013-10-11,60.7,51.9,42.8,40.7,34.3,27.5,87,53,35,29.91,29.33,14,1,20,0.00
2013-10-12,60.9,47.8,38.7,42.9,39.5,35.2,91,74,44,30.14,29.89,10,1,14,0.00
2013-10-13,63.1,49.4,36.1,45.0,39.7,32.6,88,70,51,30.10,29.73,6,1,12,0.01
2013-10-14,55.0,45.6,38.1,45.0,38.6,31.6,90,77,57,30.16,29.63,12,2,23,0.14
2013-10-15,41.3,37.2,33.4,31.6,26.5,23.8,76,65,57,30.35,30.09,7,1,13,0.00
2013-10-16,54.3,40.8,28.1,31.9,27.5,24.1,88,62,35,30.22,29.95,9,1,12,0.00
2013-10-17,50.4,40.8,33.6,33.1,29.3,25.5,76,64,49,30.14,29.96,9,2,14,0.00
2013-10-18,43.6,36.4,30.3,34.3,28.7,26.3,93,74,54,30.22,29.96,10,1,16,0.17
2013-10-19,65.5,47.4,29.7,28.7,25.4,22.1,82,47,22,30.15,29.74,9,1,18,0.00
2013-10-20,50.9,41.7,35.0,35.6,31.6,24.6,91,69,37,30.12,29.68,10,1,15,0.07
2013-10-21,58.7,43.3,29.5,34.2,29.9,26.6,93,64,32,30.25,30.02,7,1,10,0.01
2013-10-22,65.1,50.0,36.5,35.2,31.2,26.9,70,51,30,30.17,29.97,9,1,12,0.00
2013-10-23,65.7,50.8,37.3,36.3,32.8,28.8,72,53,31,30.11,29.97,9,1,14,0.00
2013-10-24,54.9,43.5,32.5,39.1,34.9,28.8,89,73,54,30.23,30.06,6,1,9,0.00
2013-10-25,69.7,50.4,33.8,36.7,34.1,30.3,89,59,27,30.20,29.93,6,1,13,0.00
2013-10-26,63.4,49.9,37.3,37.5,33.8,30.8,80,56,33,30.30,30.01,6,1,10,0.00
2013-10-27,69.5,57.2,37.1,32.9,30.7,27.8,72,42,23,30.01,29.75,5,1,7,0.00
2013-10-28,69.3,47.2,32.0,33.2,31.0,29.7,93,65,24,30.09,29.75,6,1,10,0.01
2013-10-29,39.8,35.1,31.9,34.4,31.7,30.1,94,88,75,30.07,29.85,5,0,10,0.02
2013-10-30,52.9,39.9,33.0,38.5,33.1,25.8,93,78,37,29.88,29.70,12,2,17,0.01
2013-10-31,53.9,42.8,30.1,30.1,24.5,20.6,88,52,29,29.85,29.75,15,3,26,0.00
2013-11-1,51.5,43.9,34.4,31.7,26.9,22.8,74,52,35,30.21,29.76,9,2,18,0.00
2013-11-2,65.1,45.4,27.3,33.8,25.6,15.9,80,50,23,30.23,29.57,7,1,12,0.00
2013-11-3,68.7,53.9,36.9,28.6,22.7,15.1,68,32,16,29.70,29.28,14,2,26,0.00
2013-11-4,44.9,36.1,30.2,28.5,21.7,14.2,84,57,36,30.03,29.70,13,4,20,0.00
2013-11-5,43.8,34.2,26.1,24.3,16.7,6.7,74,51,23,30.24,29.88,10,2,20,0.00
2013-11-6,52.1,37.4,22.6,19.6,15.4,8.7,62,42,26,30.35,30.19,16,3,30,0.00
2013-11-7,61.0,43.3,29.6,27.9,21.9,16.0,60,44,26,30.41,29.90,10,1,13,0.00
2013-11-8,64.9,52.7,38.3,28.1,23.9,19.0,51,34,20,29.90,29.67,11,2,15,0.00
2013-11-9,66.7,47.7,34.9,34.1,27.8,21.5,65,48,23,30.17,29.87,8,1,14,0.00
2013-11-10,68.1,48.6,32.2,29.6,26.2,22.8,79,47,20,30.24,30.00,5,1,9,0.00
2013-11-11,67.3,40.6,29.8,34.0,25.6,21.5,88,60,19,30.62,30.05,16,2,24,0.00
2013-11-12,61.8,44.3,29.9,34.0,28.7,25.3,88,58,28,30.68,30.28,7,1,12,0.00
2013-11-13,69.7,50.7,32.5,25.4,20.1,15.7,67,34,13,30.29,29.83,7,1,12,0.00
2013-11-14,58.6,49.0,40.7,34.4,29.3,19.1,62,47,34,30.01,29.64,11,2,21,0.00
2013-11-15,64.1,49.5,32.3,27.9,22.6,15.4,68,38,19,29.65,29.29,13,2,26,0.00
2013-11-16,60.0,45.1,32.8,31.3,24.3,18.3,77,48,21,29.43,29.16,18,2,26,0.00
2013-11-17,56.2,43.5,35.1,26.4,21.0,17.6,64,42,23,30.01,29.41,15,3,22,0.00
2013-11-18,65.7,44.8,27.8,21.2,18.0,14.8,66,38,14,30.17,29.89,8,1,10,0.00
2013-11-19,61.5,46.8,32.5,28.6,21.4,15.8,56,38,22,29.91,29.61,9,1,13,0.00
2013-11-20,58.3,46.6,28.8,28.4,25.2,21.9,79,44,29,29.97,29.61,17,2,27,0.00
2013-11-21,28.5,16.3,12.9,23.2,12.7,9.0,92,85,81,30.87,29.97,10,3,17,0.00
2013-11-22,34.7,26.2,15.6,21.8,17.3,10.5,83,70,52,30.83,30.58,6,1,12,0.10
2013-11-23,36.2,28.9,24.7,20.4,16.2,7.8,74,59,46,30.74,30.38,5,0,9,0.01
2013-11-24,35.7,28.9,22.3,26.6,21.8,18.2,85,75,63,30.38,30.03,6,0,10,0.00
2013-11-25,39.7,35.3,28.5,28.2,23.5,17.6,81,63,43,30.38,30.04,10,2,15,0.00
2013-11-26,48.4,35.7,26.3,25.2,22.1,20.3,84,61,34,30.50,30.24,8,1,10,0.00
2013-11-27,64.5,43.9,27.4,23.9,21.0,16.8,70,45,20,30.24,29.92,8,2,13,0.00
2013-11-28,47.2,36.3,28.0,28.1,23.8,20.2,76,61,45,30.24,30.04,7,1,10,0.00
2013-11-29,62.3,43.2,28.3,25.0,22.3,20.0,78,49,22,30.20,29.99,7,1,10,0.00
2013-11-30,59.1,42.6,28.3,21.2,18.2,15.9,64,41,20,30.21,30.01,6,1,9,0.00
2013-12-1,56.5,43.6,27.4,27.1,20.3,14.5,62,41,26,30.16,29.68,16,2,26,0.00
2013-12-2,59.6,52.7,43.0,26.6,23.8,21.2,46,33,25,29.72,29.36,18,4,31,0.00
2013-12-3,57.6,35.8,11.5,29.7,18.7,6.7,83,54,29,29.82,29.24,14,4,24,0.00
2013-12-4,11.4,6.6,-0.5,6.7,1.9,-5.5,83,81,78,30.44,29.76,9,2,15,0.00
2013-12-5,7.5,1.3,-5.4,-1.3,-5.0,-10.0,81,75,64,30.52,30.35,7,1,12,0.00
2013-12-6,9.8,1.9,-4.1,0.4,-4.1,-8.7,82,76,63,30.66,30.48,6,1,9,0.00
2013-12-7,9.0,1.7,-4.7,1.2,-3.6,-9.3,83,78,68,30.60,30.12,4,1,7,0.00
2013-12-8,20.0,9.3,2.0,9.7,3.1,-2.2,83,76,63,30.32,30.05,6,1,10,0.01
2013-12-9,27.3,14.4,1.8,4.7,-0.3,-4.1,80,55,25,30.44,30.20,10,1,18,0.00
2013-12-10,46.7,28.9,8.7,17.2,9.7,-3.9,63,46,27,30.35,29.98,13,4,21,0.07
2013-12-11,36.2,24.0,13.9,18.7,13.5,7.8,78,65,45,30.52,30.25,10,2,14,0.00
2013-12-12,57.7,33.6,17.9,26.8,16.6,7.9,72,53,21,30.47,29.90,8,1,10,0.00
2013-12-13,49.9,32.9,20.4,20.4,15.6,10.5,69,51,26,30.17,29.83,12,2,20,0.00
2013-12-14,45.1,33.0,23.2,18.5,16.5,14.5,73,53,29,30.40,30.12,12,2,17,0.00
2013-12-15,57.3,42.5,25.6,23.6,18.1,14.2,66,41,22,30.28,29.97,12,2,18,0.00
2013-12-16,63.4,48.8,33.0,22.4,17.5,12.5,51,30,16,30.17,29.94,13,2,21,0.00
2013-12-17,63.2,44.4,29.8,23.1,18.7,15.0,55,38,19,30.33,29.92,10,2,12,0.00
2013-12-18,66.0,52.2,41.2,21.1,18.3,15.6,43,27,16,29.92,29.55,9,2,14,0.00
2013-12-19,44.2,34.0,15.5,26.0,19.9,11.9,86,58,43,29.97,29.48,13,2,21,0.00
2013-12-20,23.5,20.1,15.5,20.2,16.7,12.1,89,86,82,29.99,29.80,5,0,7,0.00
2013-12-21,29.9,22.3,15.4,22.2,17.7,12.3,90,83,68,30.02,29.72,8,1,12,0.00
2013-12-22,40.6,28.7,17.3,19.7,15.9,11.7,89,63,31,30.33,30.00,15,3,24,0.02
2013-12-23,47.4,29.9,18.6,24.3,19.3,15.4,92,68,36,30.44,30.09,8,1,14,0.03
2013-12-24,54.7,40.3,22.2,28.7,20.6,12.2,68,46,30,30.31,29.86,18,3,25,0.00
2013-12-25,44.7,29.8,17.0,13.1,10.2,7.7,70,47,23,30.57,30.23,11,2,14,0.00
2013-12-26,52.9,38.4,26.2,17.5,13.6,8.5,54,38,22,30.38,30.20,6,2,12,0.00
2013-12-27,59.6,41.7,28.8,24.3,19.3,14.2,58,42,24,30.35,29.98,8,1,12,0.00
2013-12-28,59.0,36.8,20.3,26.4,21.1,16.8,88,56,27,30.23,29.74,15,3,25,0.00
2013-12-29,34.7,24.2,14.6,18.5,14.1,9.5,87,68,36,30.44,30.03,8,1,12,0.05
2013-12-30,48.0,38.6,27.8,17.1,15.6,12.9,59,40,26,30.27,29.97,15,4,24,0.00
2013-12-31,57.5,42.6,29.2,24.3,20.5,14.4,59,43,26,30.10,29.81,11,2,17,0.00
2014-1-1,39.5,31.6,19.2,29.8,23.8,15.4,88,74,47,30.41,29.77,13,2,22,0.04
2014-1-2,49.8,29.9,17.8,25.9,18.4,12.5,92,65,26,30.43,30.03,10,2,14,0.01